Dewpoint
70 70 69 69 69 67 70 72 70 70 72 70 71 72 72 74 74 76 73 75 76 76 76 78 78 78 76 79 77 77 78 77 79 77 76 75 77 73 73 72 75 77
71 70 71 69 70 70 71 72 72 72 73 72 70 72 73 74 72 74 75 74 75 75 77 76 78 78 78 76 78 78 79 78 77 72 76 76 76 74 72 74 74 78
71 70 70 68 67 68 63 69 72 72 71 70 70 73 72 71 72 74 75 74 73 72 76 77 77 78 77 77 78 77 76 78 77 73 77 76 76 75 75 71 72 73
72 71 68 66 65 67 65 67 70 72 69 70 68 65 67 67 71 73 74 76 74 75 75 74 75 75 76 77 77 77 76 78 77 78 77 77 77 75 75 76 74 74
72 72 69 68 67 68 67 66 64 68 68 68 68 68 69 73 73 71 73 74 75 74 75 75 75 75 77 77 77 76 76 76 76 78 78 77 78 76 74 74 77 75
73 73 72 70 70 70 68 66 67 66 67 65 68 68 67 68 73 70 72 72 71 70 70 71 73 73 74 76 76 76 74 73 73 77 76 76 75 74 71 74 75 75
72 73 71 71 69 70 69 68 68 67 67 66 68 68 68 67 68 71 72 72 71 72 70 71 73 73 73 75 76 76 76 76 76 76 75 76 77 76 73 74 76 75
72 71 71 71 69 68 68 69 68 68 68 69 67 69 69 67 68 67 71 72 71 73 73 72 74 75 72 73 75 76 75 73 73 77 76 75 76 76 76 75 76 77
72 72 72 71 70 68 66 66 67 67 68 68 66 65 69 68 69 66 70 72 72 74 75 73 75 74 73 73 74 75 75 73 72 74 75 74 75 76 75 75 75 76
73 73 71 71 70 69 68 66 66 66 67 67 66 65 66 69 70 69 70 73 73 74 75 73 74 73 73 72 74 75 75 75 75 74 73 73 74 74 74 75 74 74
71 70 71 70 70 68 67 66 65 66 67 65 65 65 65 67 70 71 72 73 71 72 74 74 73 73 73 71 72 73 74 74 74 75 75 74 74 75 76 75 74 73
70 70 70 70 69 67 66 65 65 66 67 67 66 66 66 65 68 69 71 73 73 72 73 74 74 74 74 73 71 71 73 73 74 74 74 74 74 74 74 75 74 74
70 70 70 70 69 68 67 66 65 64 66 67 67 67 65 63 65 69 70 73 74 73 72 74 74 74 75 75 74 73 73 73 72 74 74 73 73 73 72 73 73 73
70 69 70 71 70 71 69 67 66 65 66 68 69 68 66 63 63 68 70 71 73 73 73 74 75 74 75 76 75 74 73 73 72 73 72 73 73 73 72 71 72 72
71 70 71 73 72 72 71 70 68 67 68 69 70 68 66 65 64 66 69 70 72 74 74 73 73 74 74 75 75 74 73 71 72 72 72 73 73 72 73 73 72 70
73 73 72 73 73 73 73 72 69 69 66 68 70 69 70 70 68 67 68 70 71 73 74 73 72 73 72 69 71 74 73 70 71 73 72 72 73 73 72 72 71 68
74 74 73 73 74 74 74 73 71 69 69 70 70 71 71 72 71 68 66 69 70 70 72 72 71 71 68 65 67 70 73 72 71 73 73 73 73 74 73 71 70 70
73 74 74 74 74 75 74 74 72 71 71 71 69 70 72 71 70 70 69 68 69 70 70 72 72 69 64 64 65 66 70 73 71 71 72 73 73 72 73 72 71 69
74 74 74 74 74 75 75 74 73 72 71 70 69 70 71 72 72 70 70 69 69 71 70 71 72 67 63 63 64 64 65 71 71 70 69 70 72 73 72 73 72 72
74 74 74 74 74 75 75 74 73 72 71 69 69 70 72 72 70 71 71 72 71 72 72 71 72 67 61 61 63 63 64 67 73 72 70 69 72 73 72 73 74 73
75 74 74 74 75 75 75 74 73 73 72 70 68 69 71 73 71 71 71 72 70 70 73 70 69 64 60 60 61 61 63 66 74 73 73 72 73 74 74 73 74 74
74 75 75 75 75 75 75 74 74 73 73 72 70 68 70 72 73 71 72 72 72 70 69 72 68 61 59 59 60 61 63 71 74 74 74 74 75 76 75 76 75 75
75 74 75 75 75 75 74 74 74 74 73 73 71 70 70 71 72 71 73 72 72 72 71 71 71 63 58 58 59 59 63 73 74 74 74 73 73 76 78 78 76 76
75 75 75 75 75 74 74 74 74 74 73 73 72 71 71 70 72 73 73 72 71 71 72 72 71 67 56 57 57 58 65 74 74 74 74 74 74 74 75 77 77 78
75 76 75 75 75 75 74 75 75 75 74 74 73 72 71 73 73 73 73 73 70 71 71 72 70 68 54 57 56 57 65 74 75 75 74 74 74 74 75 75 76 77
76 77 76 75 76 76 77 77 77 76 75 74 72 71 71 71 72 72 73 73 71 71 73 72 71 73 63 56 55 56 60 74 76 75 74 74 74 75 74 75 75 75